Flag for U.S.A. Weather past 2 weeks in Livonia, Michigan, U.S.A.

Now
80 °F

Partly sunny.


Feels Like: 81 °F
Forecast: 61 / 83 °F
Wind: 6 mph from South

Location: Detroit Metropolitan Wayne County Airport

Current Time: Aug 1, 2014 at 6:38:22 PM

Latest Report: Aug 1, 2014 at 5:53 PM


Visibility: 8 mi

Pressure: 30.06 "Hg

Humidity: 49%

Dew point: 59 °F

Location of LivoniaLocation

Historic Weather in Livonia — Graph

°F

Livonia temperature yesterday

Maximum temperature yesterday: 80 °F (at 3:53 PM)
Minimum temperature yesterday: 54 °F (at 6:53 AM)
Average temperature yesterday: 68 °F

Past Weeks' High & Low Weather Summary

 TemperatureHumidityPressure
High86 °F (Jul 22, 12:53 PM)100% (Jul 20, 7:53 AM)30.24 "Hg (Jul 20, 7:53 AM)
Low51 °F (Jul 29, 3:53 AM)33% (Jul 17, 5:53 PM)29.58 "Hg (Jul 27, 4:53 PM)
Average69 °F69%30.01 "Hg
* Reported Jul 17 4:53 PM — Aug 1 4:53 PM, Livonia, Weather by CustomWeather, © 2014

Note: Actual official high and low records may vary slightly from our data, if they occured in-between our weather recording intervals... More about our weather records

Advertising

Livonia weather history for previous 24 hours

 ConditionsComfort  
Time TempWeatherWind HumidityBarometerVisibility
4:53 PM
Aug 1
79 °FBroken clouds.10 mph52%30.07 "Hg8 mi
3:53 PM77 °FBroken clouds.7 mph62%30.09 "Hg9 mi
2:53 PM79 °FPartly sunny.8 mph54%30.08 "Hg10 mi
1:53 PM79 °FBroken clouds.8 mph50%30.09 "Hg10 mi
12:53 PM81 °FScattered clouds.8 mph51%30.09 "Hg10 mi
11:53 AM78 °FPassing clouds.3 mph60%30.10 "Hg10 mi
10:53 AM76 °FSunny.No wind64%30.10 "Hg9 mi
9:53 AM71 °FPassing clouds.5 mph73%30.10 "Hg8 mi
8:53 AM68 °FPartly sunny.3 mph82%30.10 "Hg7 mi
7:53 AM65 °FPartly sunny.7 mph85%30.09 "Hg6 mi
6:53 AM61 °FFog.3 mph90%30.08 "Hg6 mi
5:53 AM61 °FPassing clouds.No wind90%30.06 "Hg7 mi
4:53 AM62 °FPassing clouds.5 mph86%30.05 "Hg7 mi
3:53 AM62 °FPassing clouds.3 mph86%30.05 "Hg8 mi
2:53 AM64 °FPassing clouds.No wind84%30.04 "Hg8 mi
1:53 AM65 °FPassing clouds.5 mph81%30.05 "Hg8 mi
12:53 AM65 °FPassing clouds.6 mph81%30.06 "Hg9 mi
11:53 PM
Jul 31
68 °FPassing clouds.3 mph73%30.05 "Hg9 mi
10:53 PM70 °FPassing clouds.6 mph71%30.04 "Hg9 mi
9:53 PM72 °FPassing clouds.6 mph66%30.03 "Hg9 mi
8:53 PM75 °FScattered clouds.8 mph58%30.02 "Hg10 mi
7:53 PM77 °FBroken clouds.8 mph54%30.01 "Hg10 mi
6:53 PM79 °FBroken clouds.9 mph48%30.00 "Hg10 mi
Weather by CustomWeather, © 2014

See weather overviewHow to use our weather pages